When you browse on this site, cookies collect data to enhance your experience and personalize the content and advertising you see.
Visit our Privacy Policy to learn more. By continuing to use the site, you agree to this use of cookies and data.
  • In Hungary
  • List of Countries
  • For 7 days
  • Water Temperature
  • Weather Map
  • News
  • Weather Widgets
  • user-avatar
    Login

    Hourly Weather Srednyaya Soloncovka

    Today, 22 October, Tuesday

    Time Temperature Precipitation Wind Pressure Humidity
    00:00 +9°C° 0 mm 7 mps 761 mmHg 78%
    01:00 +9°C° 0 mm 7 mps 761 mmHg 78%
    02:00 +9°C° 0 mm 7 mps 760 mmHg 78%
    03:00 +10°C° 0 mm 6 mps 760 mmHg 78%
    04:00 +10°C° 0.7 mm 6 mps 760 mmHg 81%
    05:00 +9°C° 0.7 mm 6 mps 760 mmHg 84%
    06:00 +9°C° 0.7 mm 6 mps 760 mmHg 88%
    07:00 +9°C° 1 mm 5 mps 760 mmHg 89%
    08:00 +10°C° 1 mm 4 mps 760 mmHg 90%
    09:00 +10°C° 0 mm 3 mps 760 mmHg 93%
    10:00 +11°C° 0 mm 3 mps 760 mmHg 87%
    11:00 +12°C° 0 mm 3 mps 761 mmHg 82%
    12:00 +13°C° 0 mm 3 mps 761 mmHg 76%
    13:00 +13°C° 0 mm 3 mps 761 mmHg 75%
    14:00 +13°C° 0 mm 3 mps 761 mmHg 74%
    15:00 +12°C° 0 mm 3 mps 761 mmHg 74%
    16:00 +12°C° 0 mm 2 mps 761 mmHg 78%
    17:00 +10°C° 0 mm 2 mps 761 mmHg 82%
    18:00 +9°C° 0 mm 2 mps 762 mmHg 87%
    19:00 +9°C° 0 mm 2 mps 762 mmHg 86%
    20:00 +8°C° 0 mm 2 mps 762 mmHg 85%
    21:00 +8°C° 0 mm 2 mps 762 mmHg 84%
    22:00 +8°C° 0 mm 2 mps 762 mmHg 83%
    23:00 +8°C° 0 mm 2 mps 762 mmHg 82%

    Tomorrow, 23 October, Wednesday

    Time Temperature Precipitation Wind Pressure Humidity
    00:00 +8°C° 0 mm 2 mps 762 mmHg 81%
    01:00 +7°C° 0 mm 2 mps 762 mmHg 83%
    02:00 +6°C° 0 mm 2 mps 762 mmHg 85%
    03:00 +6°C° 0 mm 1 mps 762 mmHg 87%
    04:00 +7°C° 0 mm 1 mps 762 mmHg 86%
    05:00 +7°C° 0 mm 1 mps 762 mmHg 85%
    06:00 +7°C° 0 mm 1 mps 762 mmHg 84%
    07:00 +8°C° 0 mm 1 mps 762 mmHg 82%
    08:00 +7°C° 0 mm 2 mps 762 mmHg 80%
    09:00 +8°C° 0 mm 3 mps 762 mmHg 78%
    10:00 +8°C° 0 mm 4 mps 761 mmHg 74%
    11:00 +9°C° 0 mm 5 mps 760 mmHg 70%
    12:00 +12°C° 0 mm 5 mps 760 mmHg 66%
    13:00 +12°C° 0 mm 5 mps 759 mmHg 67%
    14:00 +12°C° 0 mm 5 mps 759 mmHg 68%
    15:00 +12°C° 0 mm 5 mps 759 mmHg 69%
    16:00 +10°C° 0 mm 5 mps 758 mmHg 71%
    17:00 +10°C° 0 mm 5 mps 758 mmHg 74%
    18:00 +9°C° 0 mm 5 mps 758 mmHg 77%
    19:00 +11°C° 0 mm 4 mps 758 mmHg 79%
    20:00 +11°C° 0 mm 4 mps 758 mmHg 81%
    21:00 +11°C° 0 mm 4 mps 758 mmHg 83%
    22:00 +11°C° 0 mm 3 mps 758 mmHg 87%
    23:00 +11°C° 0 mm 3 mps 758 mmHg 90%

    Day after tomorrow, 24 October, Thursday

    Time Temperature Precipitation Wind Pressure Humidity
    00:00 +11°C° 0 mm 3 mps 758 mmHg 94%
    01:00 +10°C° 0 mm 2 mps 758 mmHg 94%
    02:00 +10°C° 0 mm 2 mps 759 mmHg 93%
    03:00 +9°C° 0 mm 2 mps 759 mmHg 93%
    04:00 +9°C° 0 mm 2 mps 759 mmHg 92%
    05:00 +9°C° 0 mm 2 mps 759 mmHg 91%
    06:00 +8°C° 0 mm 2 mps 759 mmHg 90%
    07:00 +9°C° 0 mm 2 mps 760 mmHg 87%
    08:00 +10°C° 0 mm 2 mps 760 mmHg 83%
    09:00 +12°C° 0 mm 2 mps 760 mmHg 80%
    10:00 +12°C° 0 mm 2 mps 760 mmHg 77%
    11:00 +13°C° 0 mm 2 mps 760 mmHg 75%
    12:00 +13°C° 0 mm 2 mps 761 mmHg 73%
    13:00 +13°C° 0 mm 2 mps 761 mmHg 72%
    14:00 +13°C° 0 mm 1 mps 761 mmHg 71%
    15:00 +13°C° 0 mm 1 mps 761 mmHg 71%
    16:00 +12°C° 0 mm 1 mps 761 mmHg 75%
    17:00 +11°C° 0 mm 1 mps 761 mmHg 79%
    18:00 +10°C° 0 mm 1 mps 762 mmHg 83%
    19:00 +9°C° 0 mm 0 mps 762 mmHg 84%
    20:00 +9°C° 0 mm 0 mps 762 mmHg 84%
    21:00 +8°C° 0 mm 0 mps 762 mmHg 85%
    22:00 +8°C° 0 mm 0 mps 762 mmHg 86%
    23:00 +8°C° 0 mm 0 mps 762 mmHg 86%

    25 October, Friday

    Time Temperature Precipitation Wind Pressure Humidity
    00:00 +8°C° 0 mm 0 mps 762 mmHg 86%
    01:00 +8°C° 0 mm 0 mps 763 mmHg 85%
    02:00 +8°C° 0 mm 0 mps 763 mmHg 85%
    03:00 +9°C° 0 mm 0 mps 763 mmHg 84%
    04:00 +9°C° 0 mm 0 mps 763 mmHg 84%
    05:00 +9°C° 0 mm 0 mps 763 mmHg 84%
    06:00 +9°C° 0 mm 0 mps 763 mmHg 84%
    07:00 +10°C° 0 mm 1 mps 763 mmHg 82%
    08:00 +11°C° 0 mm 1 mps 763 mmHg 79%
    09:00 +11°C° 0 mm 1 mps 763 mmHg 77%
    10:00 +12°C° 0 mm 1 mps 763 mmHg 76%
    11:00 +12°C° 0 mm 1 mps 764 mmHg 74%
    12:00 +13°C° 0 mm 1 mps 764 mmHg 73%
    13:00 +13°C° 0 mm 1 mps 764 mmHg 73%
    14:00 +13°C° 0 mm 1 mps 764 mmHg 73%
    15:00 +13°C° 0 mm 1 mps 764 mmHg 73%
    16:00 +11°C° 0 mm 0 mps 764 mmHg 77%
    17:00 +10°C° 0 mm 0 mps 764 mmHg 80%
    18:00 +9°C° 0 mm 0 mps 764 mmHg 83%
    19:00 +9°C° 0 mm 0 mps 764 mmHg 84%
    20:00 +8°C° 0 mm 0 mps 764 mmHg 85%
    21:00 +9°C° 0 mm 1 mps 764 mmHg 86%
    22:00 +9°C° 0 mm 1 mps 764 mmHg 86%
    23:00 +9°C° 0 mm 1 mps 764 mmHg 86%

    26 October, Saturday

    Time Temperature Precipitation Wind Pressure Humidity
    00:00 +8°C° 0 mm 1 mps 764 mmHg 87%
    01:00 +8°C° 0 mm 1 mps 764 mmHg 87%
    02:00 +8°C° 0 mm 1 mps 764 mmHg 87%
    03:00 +8°C° 0 mm 1 mps 764 mmHg 88%
    04:00 +8°C° 0 mm 1 mps 764 mmHg 89%
    05:00 +8°C° 0 mm 1 mps 764 mmHg 90%
    06:00 +7°C° 0 mm 2 mps 764 mmHg 92%
    07:00 +8°C° 0 mm 2 mps 764 mmHg 89%
    08:00 +9°C° 0 mm 2 mps 764 mmHg 87%
    09:00 +10°C° 0 mm 3 mps 764 mmHg 84%
    10:00 +11°C° 0 mm 3 mps 764 mmHg 79%
    11:00 +13°C° 0 mm 4 mps 764 mmHg 74%
    12:00 +14°C° 0 mm 5 mps 763 mmHg 69%
    13:00 +14°C° 0 mm 4 mps 763 mmHg 70%
    14:00 +14°C° 0 mm 4 mps 763 mmHg 70%
    15:00 +14°C° 0 mm 4 mps 762 mmHg 70%
    16:00 +13°C° 0 mm 4 mps 762 mmHg 73%
    17:00 +12°C° 0 mm 4 mps 762 mmHg 76%
    18:00 +12°C° 0 mm 4 mps 762 mmHg 78%
    19:00 +11°C° 0 mm 4 mps 762 mmHg 77%
    20:00 +11°C° 0 mm 4 mps 762 mmHg 76%
    21:00 +10°C° 0 mm 4 mps 762 mmHg 75%
    22:00 +10°C° 0 mm 4 mps 762 mmHg 75%
    23:00 +10°C° 0 mm 3 mps 762 mmHg 75%

    27 October, Sunday

    Time Temperature Precipitation Wind Pressure Humidity
    00:00 +9°C° 0 mm 3 mps 761 mmHg 75%
    01:00 +9°C° 0 mm 3 mps 761 mmHg 76%
    02:00 +9°C° 0 mm 3 mps 761 mmHg 77%
    03:00 +9°C° 0 mm 3 mps 761 mmHg 79%
    04:00 +8°C° 0 mm 3 mps 761 mmHg 80%
    05:00 +8°C° 0 mm 3 mps 760 mmHg 81%
    06:00 +8°C° 0 mm 3 mps 760 mmHg 82%
    07:00 +8°C° 0 mm 4 mps 760 mmHg 76%
    08:00 +9°C° 0 mm 5 mps 760 mmHg 70%
    09:00 +10°C° 0 mm 5 mps 760 mmHg 64%
    10:00 +13°C° 0 mm 6 mps 759 mmHg 60%
    11:00 +14°C° 0 mm 6 mps 759 mmHg 55%
    12:00 +15°C° 0 mm 7 mps 759 mmHg 51%
    13:00 +15°C° 0 mm 6 mps 758 mmHg 51%
    14:00 +14°C° 0 mm 6 mps 758 mmHg 52%
    15:00 +14°C° 0 mm 5 mps 757 mmHg 52%
    16:00 +13°C° 0 mm 5 mps 757 mmHg 54%
    17:00 +12°C° 0 mm 5 mps 757 mmHg 55%
    18:00 +10°C° 0 mm 5 mps 756 mmHg 57%
    19:00 +10°C° 0 mm 5 mps 756 mmHg 57%
    20:00 +10°C° 0 mm 5 mps 756 mmHg 57%
    21:00 +10°C° 0 mm 6 mps 755 mmHg 58%
    22:00 +10°C° 0 mm 6 mps 755 mmHg 61%
    23:00 +10°C° 0 mm 6 mps 754 mmHg 64%

    28 October, Monday

    Time Temperature Precipitation Wind Pressure Humidity
    00:00 +10°C° 0 mm 6 mps 754 mmHg 68%
    01:00 +10°C° 0 mm 6 mps 753 mmHg 69%
    02:00 +9°C° 0 mm 6 mps 753 mmHg 71%
    03:00 +9°C° 0 mm 6 mps 752 mmHg 73%
    04:00 +9°C° 0 mm 7 mps 752 mmHg 70%
    05:00 +9°C° 0 mm 7 mps 751 mmHg 68%
    06:00 +9°C° 0 mm 7 mps 750 mmHg 65%
    07:00 +10°C° 0 mm 7 mps 750 mmHg 62%
    08:00 +10°C° 0 mm 8 mps 749 mmHg 59%
    09:00 +11°C° 0 mm 9 mps 749 mmHg 56%
    10:00 +12°C° 0 mm 8 mps 749 mmHg 57%
    11:00 +12°C° 0 mm 8 mps 749 mmHg 58%
    12:00 +13°C° 0 mm 8 mps 749 mmHg 59%
    13:00 +12°C° 1 mm 7 mps 748 mmHg 69%
    14:00 +12°C° 1 mm 5 mps 748 mmHg 79%
    15:00 +10°C° 1 mm 4 mps 748 mmHg 90%
    16:00 +10°C° 0.5 mm 4 mps 749 mmHg 88%
    17:00 +9°C° 0.5 mm 3 mps 749 mmHg 86%
    18:00 +9°C° 0.5 mm 3 mps 749 mmHg 84%
    19:00 +8°C° 0 mm 3 mps 749 mmHg 83%
    20:00 +7°C° 0 mm 2 mps 749 mmHg 83%
    21:00 +6°C° 0 mm 2 mps 749 mmHg 82%
    22:00 +7°C° 0 mm 1 mps 749 mmHg 82%
    23:00 +6°C° 0 mm 1 mps 749 mmHg 82%
    Show more